GW4152 Weather Reports


time (UTC)temp
C
wind
direction
speed
KPH
gust
KPH
rain 1hr
cm
rain 24hr
cm
rain mn
cm
humidity
%
barometer
mb
20260505093044 15 195 8.0 17.7 0.00 0.15 0.13 77 1000.6
20260505092523 15 206 6.4 16.1 0.00 0.15 0.13 78 1000.5
20260505092023 15 176 6.4 16.1 0.00 0.15 0.13 78 1000.4
20260505091541 15 161 6.4 16.1 0.00 0.15 0.13 78 1000.4
20260505091020 15 182 4.8 22.5 0.00 0.15 0.13 79 1000.5
20260505090521 15 213 6.4 22.5 0.00 0.15 0.13 79 1000.5
20260505090051 15 190 6.4 16.1 0.00 0.15 0.13 80 1000.5
20260505085521 14 179 4.8 16.1 0.00 0.15 0.13 81 1000.6
20260505085021 14 189 6.4 14.5 0.00 0.15 0.13 83 1000.7
20260505084542 14 194 6.4 14.5 0.00 0.15 0.13 84 1000.6
20260505084020 13 163 4.8 9.7 0.00 0.15 0.13 85 1000.7
20260505083520 13 200 4.8 9.7 0.00 0.15 0.13 87 1000.7
20260505083039 13 216 4.8 11.3 0.00 0.15 0.13 88 1000.7
20260505082520 13 182 4.8 11.3 0.00 0.15 0.13 89 1000.9
20260505082020 12 167 3.2 9.7 0.00 0.15 0.13 90 1001.0
20260505081543 12 159 4.8 9.7 0.00 0.15 0.13 91 1001.1
20260505081024 12 188 3.2 9.7 0.00 0.15 0.13 91 1001.1
20260505080520 12 169 3.2 9.7 0.00 0.15 0.13 92 1001.1
20260505080036 12 174 3.2 9.7 0.00 0.15 0.13 92 1001.1
20260505075527 12 179 3.2 9.7 0.00 0.15 0.13 92 1001.1
20260505075020 12 161 3.2 9.7 0.00 0.15 0.13 92 1001.1
20260505074539 12 161 3.2 9.7 0.00 0.15 0.13 92 1001.0
20260505074021 12 161 3.2 9.7 0.00 0.15 0.13 92 1001.1
20260505073521 12 161 3.2 9.7 0.00 0.15 0.13 92 1001.1
20260505073040 12 155 3.2 6.4 0.00 0.15 0.13 92 1001.2
20260505072520 12 155 3.2 6.4 0.00 0.15 0.13 91 1001.3
20260505072020 12 155 1.6 6.4 0.00 0.15 0.13 91 1001.4
20260505071537 12 155 3.2 6.4 0.00 0.15 0.13 91 1001.5
20260505071022 12 155 3.2 6.4 0.03 0.15 0.13 91 1001.6
20260505070523 12 186 1.6 8.0 0.03 0.15 0.13 91 1001.7
20260505070037 12 186 3.2 8.0 0.05 0.15 0.13 91 1001.8
20260505065520 12 187 1.6 9.7 0.10 0.15 0.13 90 1002.0
20260505065021 12 0 1.6 11.3 0.13 0.15 0.13 90 1002.2
20260505064537 13 240 4.8 11.3 0.13 0.15 0.13 90 1003.0
20260505064021 13 240 3.2 9.7 0.13 0.15 0.13 90 1002.2
20260505063522 13 190 1.6 8.0 0.13 0.15 0.13 89 1002.2
20260505063042 13 215 3.2 8.0 0.13 0.15 0.13 89 1002.6
20260505062524 13 208 3.2 19.3 0.13 0.15 0.13 89 1002.3
20260505062020 13 0 4.8 25.7 0.13 0.15 0.13 88 1002.3
20260505061543 13 210 9.7 25.7 0.13 0.15 0.13 87 1001.9
20260505061025 13 185 9.7 32.2 0.10 0.13 0.10 86 1002.2
20260505060521 13 203 11.3 38.6 0.10 0.13 0.10 85 1002.5
20260505060039 14 220 12.9 43.5 0.05 0.08 0.05 82 1002.6
20260505055521 15 189 20.9 43.5 0.03 0.05 0.03 77 1002.7
20260505055022 16 213 11.3 25.7 0.00 0.03 0.00 73 1002.8
20260505054543 16 226 8.0 22.5 0.00 0.03 0.00 72 1002.6
20260505054026 16 211 8.0 24.1 0.00 0.03 0.00 71 1002.5
20260505053520 16 194 8.0 24.1 0.00 0.03 0.00 71 1002.0
20260505053042 16 227 6.4 30.6 0.00 0.03 0.00 70 1002.0
20260505052521 16 177 12.9 30.6 0.00 0.03 0.00 68 1002.1
20260505052023 16 218 9.7 24.1 0.00 0.03 0.00 68 1002.1
20260505051536 16 18 11.3 24.1 0.00 0.03 0.00 68 1002.1
20260505051022 16 224 9.7 24.1 0.00 0.03 0.00 68 1002.2
20260505050524 16 217 11.3 25.7 0.00 0.03 0.00 68 1002.1
20260505041535 17 186 11.3 32.2 0.00 0.03 0.00 66 1002.1
20260505041021 16 205 8.0 30.6 0.00 0.03 0.00 66 1001.9
20260505040521 16 153 11.3 19.3 0.00 0.03 0.00 66 1002.1
20260505040037 16 169 4.8 16.1 0.00 0.03 0.00 66 1001.8
20260505035521 16 187 8.0 14.5 0.00 0.03 0.03 66 1001.8
20260505035022 16 183 8.0 14.5 0.00 0.03 0.03 66 1001.8
20260505034540 16 201 6.4 16.1 0.00 0.03 0.03 65 1001.9
20260505034021 16 190 6.4 24.1 0.00 0.03 0.03 65 1001.8
20260505033523 16 201 9.7 24.1 0.00 0.03 0.03 64 1001.9
20260505033101 16 206 8.0 22.5 0.00 0.03 0.03 64 1002.0
20260505032521 16 210 9.7 17.7 0.00 0.03 0.03 65 1001.9
20260505032020 16 177 4.8 16.1 0.03 0.03 0.03 66 1002.1
20260505031539 16 165 8.0 16.1 0.03 0.03 0.03 66 1002.2
20260505031020 15 178 3.2 11.3 0.03 0.03 0.03 67 1002.4
20260505030521 15 177 4.8 11.3 0.03 0.03 0.03 68 1002.4
20260505030038 15 171 4.8 11.3 0.03 0.03 0.03 69 1002.5
20260505025521 15 207 4.8 12.9 0.03 0.03 0.03 69 1002.6
20260505025023 15 202 4.8 12.9 0.03 0.03 0.03 69 1002.5
20260505024536 14 192 4.8 11.3 0.03 0.03 0.03 69 1002.5
20260505024023 15 178 3.2 12.9 0.03 0.03 0.03 69 1002.5
20260505023523 15 192 6.4 14.5 0.03 0.03 0.03 68 1002.4
20260505023046 15 180 6.4 16.1 0.03 0.03 0.03 66 1002.5
20260505022524 15 209 6.4 16.1 0.00 0.00 0.00 63 1003.0
20260505022023 15 223 3.2 8.0 0.00 0.00 0.00 59 1003.3
20260505021540 15 205 1.6 4.8 0.00 0.00 0.00 54 1002.6
20260505021024 15 205 0.0 3.2 0.00 0.00 0.00 53 1002.3
20260505020521 15 205 0.0 1.6 0.00 0.00 0.00 52 1002.2
20260505020043 15 205 0.0 1.6 0.00 0.00 0.00 52 1002.2
20260505015521 15 205 0.0 3.2 0.00 0.00 0.00 52 1002.3
20260505015021 15 205 0.0 3.2 0.00 0.00 0.00 50 1002.4
20260505014539 15 0 0.0 3.2 0.00 0.00 0.00 51 1002.3
20260505014020 15 205 1.6 4.8 0.00 0.00 0.00 50 1002.2
20260505013520 15 205 0.0 6.4 0.00 0.00 0.00 51 1002.4
20260505013037 15 205 1.6 6.4 0.00 0.00 0.00 50 1002.5
20260505012521 15 205 1.6 8.0 0.00 0.00 0.00 51 1002.5
20260505012023 15 205 0.0 9.7 0.00 0.00 0.00 51 1002.5
20260505011537 15 205 3.2 9.7 0.00 0.00 0.00 50 1002.5
20260505011021 15 219 1.6 6.4 0.00 0.00 0.00 51 1002.6
20260505010523 16 0 3.2 9.7 0.00 0.00 0.00 50 1002.5
20260505010043 16 204 3.2 9.7 0.00 0.00 0.00 49 1002.5
20260505005521 16 156 3.2 9.7 0.00 0.00 0.00 49 1002.5
20260505005021 16 199 3.2 9.7 0.00 0.00 0.00 49 1002.4
20260505004546 16 176 1.6 9.7 0.00 0.00 0.00 50 1002.5
20260505004020 16 186 3.2 9.7 0.00 0.00 0.00 49 1002.5
20260505003521 17 199 4.8 11.3 0.00 0.00 0.00 48 1002.4
20260505003039 17 210 3.2 11.3 0.00 0.00 0.00 47 1002.5
20260505002521 17 182 3.2 9.7 0.00 0.00 0.00 47 1002.5
20260505002021 17 204 1.6 11.3 0.00 0.00 0.00 46 1002.6
20260505001537 17 192 4.8 14.5 0.00 0.00 0.00 45 1002.6
20260505001020 17 218 4.8 14.5 0.00 0.00 0.00 45 1002.6
20260505000522 17 203 4.8 14.5 0.00 0.00 0.00 45 1002.7
20260505000045 17 192 4.8 14.5 0.00 0.00 0.00 45 1002.6
20260504235523 18 203 6.4 14.5 0.00 0.00 0.00 46 1002.7
20260504235021 18 197 3.2 11.3 0.00 0.00 0.00 46 1002.6
20260504234603 18 196 4.8 19.3 0.00 0.00 0.00 45 1002.5
20260504234021 18 190 6.4 19.3 0.00 0.00 0.00 45 1002.7
20260504233520 18 161 4.8 14.5 0.00 0.00 0.00 45 1002.7
20260504233038 19 200 4.8 12.9 0.00 0.00 0.00 44 1002.7
20260504232521 19 242 3.2 12.9 0.00 0.00 0.00 44 1002.8
20260504232020 19 216 6.4 16.1 0.00 0.00 0.00 44 1002.7
20260504231549 19 231 4.8 16.1 0.00 0.00 0.00 43 1002.7
20260504231020 19 184 4.8 14.5 0.00 0.00 0.00 43 1002.9
20260504230520 19 187 4.8 17.7 0.00 0.00 0.00 43 1002.8
20260504230037 19 201 4.8 17.7 0.00 0.00 0.00 42 1002.8
20260504225528 20 223 8.0 17.7 0.00 0.00 0.00 41 1002.8
20260504225021 20 216 4.8 16.1 0.00 0.00 0.00 41 1002.8
20260504224542 20 131 6.4 12.9 0.00 0.00 0.00 40 1002.7
20260504224023 20 196 4.8 12.9 0.00 0.00 0.00 40 1002.8
20260504223521 20 215 8.0 14.5 0.00 0.00 0.00 37 1002.7
20260504223039 20 205 3.2 17.7 0.00 0.00 0.00 38 1002.7
20260504222521 20 211 9.7 24.1 0.00 0.00 0.00 36 1002.8
20260504222021 20 215 8.0 24.1 0.00 0.00 0.00 36 1002.7
20260504221539 20 200 8.0 24.1 0.00 0.00 0.00 36 1002.6
20260504221027 20 256 8.0 24.1 0.00 0.00 0.00 37 1002.6
20260504220524 21 205 4.8 14.5 0.00 0.00 0.00 36 1002.6
20260504220037 21 216 4.8 20.9 0.00 0.00 0.00 36 1002.5
20260504215521 21 218 3.2 24.1 0.00 0.00 0.00 36 1002.6
20260504215021 21 263 11.3 24.1 0.00 0.00 0.00 36 1002.5
20260504214549 21 212 8.0 22.5 0.00 0.00 0.00 36 1002.5
20260504214024 21 214 6.4 27.4 0.00 0.00 0.00 37 1002.5
20260504213524 21 252 11.3 27.4 0.00 0.00 0.00 37 1002.4
20260504213038 21 212 8.0 25.7 0.00 0.00 0.00 37 1002.3
20260504212520 21 250 9.7 29.0 0.00 0.00 0.00 38 1002.3
20260504212020 21 202 11.3 29.0 0.00 0.00 0.00 36 1002.4
20260504211539 21 271 12.9 27.4 0.00 0.00 0.00 37 1002.5
20260504211021 21 216 11.3 25.7 0.00 0.00 0.00 36 1002.5
20260504210525 21 193 12.9 24.1 0.00 0.00 0.00 36 1002.5
20260504210042 22 286 9.7 30.6 0.00 0.00 0.00 36 1002.6
20260504205526 21 246 9.7 30.6 0.00 0.00 0.00 35 1002.5
20260504205020 21 232 11.3 30.6 0.00 0.00 0.00 36 1002.5
20260504204617 21 228 14.5 35.4 0.00 0.00 0.00 38 1002.7
20260504204021 21 309 16.1 35.4 0.00 0.00 0.00 36 1002.7
20260504203520 21 232 8.0 25.7 0.00 0.00 0.00 40 1002.8
20260504203042 21 205 12.9 29.0 0.00 0.00 0.00 39 1002.7
20260504202521 21 217 12.9 29.0 0.00 0.00 0.00 39 1002.8
20260504202021 21 211 11.3 25.7 0.00 0.00 0.00 39 1002.8
20260504201537 21 217 11.3 25.7 0.00 0.00 0.00 41 1002.8
20260504201021 21 238 9.7 33.8 0.00 0.00 0.00 41 1002.9
20260504200521 21 221 9.7 33.8 0.00 0.00 0.00 40 1002.9
20260504200040 21 262 12.9 25.7 0.00 0.00 0.00 42 1002.9
20260504195521 21 168 9.7 22.5 0.00 0.00 0.00 43 1003.0
20260504195020 21 202 11.3 24.1 0.00 0.00 0.00 43 1003.0
20260504194546 21 195 11.3 24.1 0.00 0.00 0.00 42 1003.2
20260504194027 21 169 6.4 24.1 0.00 0.00 0.00 45 1003.2
20260504193522 21 199 9.7 27.4 0.00 0.00 0.00 44 1003.4
20260504193036 21 224 12.9 27.4 0.00 0.00 0.00 44 1003.6
20260504192524 21 204 11.3 24.1 0.00 0.00 0.00 43 1003.6
20260504192020 20 234 11.3 24.1 0.00 0.00 0.00 45 1003.6
20260504191536 20 197 9.7 29.0 0.00 0.00 0.00 46 1003.9
20260504191021 20 171 12.9 29.0 0.00 0.00 0.00 45 1003.9
20260504190526 20 298 11.3 25.7 0.00 0.00 0.00 45 1004.0
20260504190042 20 213 9.7 25.7 0.00 0.00 0.00 44 1004.0
20260504185523 20 229 9.7 20.9 0.00 0.00 0.00 45 1004.1
20260504185023 20 259 9.7 29.0 0.00 0.00 0.00 47 1004.1
20260504184542 20 187 11.3 38.6 0.00 0.00 0.00 46 1004.1
20260504184023 20 203 9.7 38.6 0.00 0.00 0.00 46 1004.3
20260504183521 20 209 9.7 29.0 0.00 0.00 0.00 46 1004.2
20260504183037 20 242 12.9 35.4 0.00 0.00 0.00 46 1004.4
20260504182526 20 223 12.9 35.4 0.00 0.00 0.00 48 1004.4
20260504182021 20 236 14.5 35.4 0.00 0.00 0.00 47 1004.4
20260504181538 20 208 11.3 24.1 0.00 0.00 0.00 48 1004.5
20260504181020 20 235 6.4 22.5 0.00 0.00 0.00 50 1004.5
20260504180524 20 216 11.3 22.5 0.00 0.00 0.00 50 1004.6
20260504180042 20 213 6.4 16.1 0.00 0.00 0.00 51 1004.7
20260504175521 19 217 8.0 29.0 0.00 0.00 0.00 51 1004.8
20260504175021 18 190 9.7 29.0 0.00 0.00 0.00 51 1004.8
20260504174539 18 204 8.0 33.8 0.00 0.00 0.00 51 1004.9
20260504174021 18 207 9.7 33.8 0.00 0.00 0.00 51 1004.9
20260504173521 18 188 8.0 20.9 0.00 0.00 0.00 51 1005.0
20260504173037 18 185 8.0 24.1 0.00 0.00 0.00 51 1004.9
20260504172520 18 207 11.3 32.2 0.00 0.00 0.00 51 1004.9
20260504172021 18 202 9.7 32.2 0.00 0.00 0.00 51 1005.0
20260504171544 18 251 6.4 25.7 0.00 0.00 0.00 52 1005.0
20260504171021 18 240 11.3 24.1 0.00 0.00 0.00 49 1005.0
20260504170521 17 223 9.7 29.0 0.00 0.00 0.00 51 1005.1
20260504151023 16 192 12.9 33.8 0.00 0.00 0.00 54 1006.0
20260504150522 16 233 11.3 33.8 0.00 0.00 0.00 53 1006.0
20260504141027 15 227 12.9 35.4 0.00 0.00 0.00 54 1005.8
20260504140521 15 200 11.3 29.0 0.00 0.00 0.00 52 1005.8
20260504130524 13 211 8.0 22.5 0.00 0.00 0.00 53 1006.0
20260504110523 10 169 8.0 14.5 0.00 0.00 0.00 59 1006.1
20260504100520 10 219 8.0 24.1 0.00 0.00 0.00 57 1006.0